Location: *
(46.3500°N, 10.9000°E)
Time: 18:07:03
(UTC+00:00)

Cosmos 1812 Rocket - Pass Details

Date: 09 April 2020
Orbit: 607 x 631 km, 82.5° (Epoch: 29 May)

Event Time Altitude Azimuth Distance (km) Brightness Sun altitude
Exits shadow 19:25:18 26° 126° (SE) 1,204 4.4 -15.1°
Maximum altitude 19:26:41 32° 91° (E) 1,044 4.2 -15.3°
Drops below altitude 10° 19:30:34 10° 27° (NNE) 1,968 6.2 -15.9°
Sets 19:32:57 0° 18° (NNE) 2,877 7.2 -16.2°
